Retour au catalogue

FENGYUN 1C DEB

ActifPO
NORAD 30112·DEBRIS·🇨🇳 China

Lancé May 10, 1999 depuis Taiyuan Satellite Launch Center

Loading…

Prochains Passages (prochaines 24 heures)

TLE

FraisSource: Space-Track

Époque: Sep 14, 2026, 09:38 UTC

1 30112U 99025RR  26257.40155346  .00001139  00000-0  43004-3 0  9990
2 30112  99.3057 251.6318 0200124  43.8124 317.8734 14.23034980 15013

Suivez FENGYUN 1C DEB en temps réel avec AllMySat

Download on the App Store